FW0735 Weather Reports


Display with metric or nautical units.
time (UTC)temp
F
wind
direction
speed
MPH
gust
MPH
rain 1hr
in
rain 24hr
in
rain mn
in
humidity
%
barometer
mb
20260906120517 87 235 13.0 17.0 0.00 0.00 0.00 62 1010.3
20260906120038 87 223 10.0 17.0 0.00 0.00 0.00 68 1010.3
20260906115516 87 212 13.0 17.0 0.00 0.00 0.00 66 1010.4
20260906115017 88 196 12.0 17.0 0.00 0.00 0.00 64 1010.3
20260906114544 87 179 13.0 17.0 0.00 0.00 0.00 67 1010.2
20260906114012 87 236 11.0 17.0 0.00 0.00 0.00 65 1010.3
20260906113512 87 209 10.0 19.0 0.00 0.00 0.00 67 1010.3
20260906113024 87 210 11.0 20.0 0.00 0.00 0.00 67 1010.3
20260906112513 87 201 15.0 20.0 0.00 0.00 0.00 67 1010.4
20260906112014 87 236 11.0 19.0 0.00 0.00 0.00 67 1010.5
20260906111525 87 158 11.0 19.0 0.00 0.00 0.00 68 1010.4
20260906111015 87 166 11.0 18.0 0.00 0.00 0.00 66 1010.5
20260906110518 87 149 11.0 16.0 0.00 0.00 0.00 64 1010.6
20260906110032 87 188 13.0 18.0 0.00 0.00 0.00 64 1010.7
20260906105521 87 175 15.0 18.0 0.00 0.00 0.00 63 1010.7
20260906105016 87 207 12.0 20.0 0.00 0.00 0.00 64 1010.7
20260906104535 86 173 14.0 20.0 0.00 0.00 0.00 64 1010.7
20260906104020 86 179 13.0 18.0 0.00 0.00 0.00 64 1010.7
20260906103519 86 165 12.0 18.0 0.00 0.00 0.00 64 1010.8
20260906103034 86 121 13.0 18.0 0.00 0.00 0.00 64 1010.8
20260906102511 86 158 12.0 16.0 0.00 0.00 0.00 64 1010.8
20260906102012 86 103 12.0 16.0 0.00 0.00 0.00 62 1010.9
20260906101524 86 141 10.0 16.0 0.00 0.00 0.00 63 1011.0
20260906101013 85 163 11.0 14.0 0.00 0.00 0.00 66 1011.1
20260906100516 86 148 11.0 14.0 0.00 0.00 0.00 65 1011.0
20260906100036 86 143 10.0 15.0 0.00 0.00 0.00 65 1011.0
20260906095525 85 153 12.0 15.0 0.00 0.00 0.00 64 1010.9
20260906095018 85 150 11.0 16.0 0.00 0.00 0.00 66 1011.0
20260906094531 85 153 11.0 16.0 0.00 0.00 0.00 68 1011.0
20260906094021 84 139 10.0 16.0 0.00 0.00 0.00 68 1011.1
20260906093519 84 169 11.0 16.0 0.00 0.00 0.00 70 1011.1
20260906093033 84 146 13.0 15.0 0.00 0.00 0.00 71 1011.2
20260906092518 84 135 11.0 14.0 0.00 0.00 0.00 71 1011.2
20260906092019 84 189 10.0 14.0 0.00 0.00 0.00 71 1011.2
20260906091536 84 134 9.0 14.0 0.00 0.00 0.00 70 1011.2
20260906091012 84 146 10.0 14.0 0.00 0.00 0.00 71 1011.2
20260906090513 84 146 10.0 13.0 0.00 0.00 0.00 72 1011.2
20260906090028 84 144 9.0 13.0 0.00 0.00 0.00 72 1011.2
20260906085514 84 133 10.0 13.0 0.00 0.00 0.00 73 1011.1
20260906085015 84 130 9.0 12.0 0.00 0.00 0.00 72 1011.2
20260906084532 85 139 9.0 12.0 0.00 0.00 0.00 71 1011.3
20260906084017 84 165 9.0 13.0 0.00 0.00 0.00 72 1011.3
20260906083516 84 128 10.0 13.0 0.00 0.00 0.00 71 1011.3
20260906083033 84 134 8.0 14.0 0.00 0.00 0.00 70 1011.2
20260906082518 84 120 7.0 15.0 0.00 0.00 0.00 72 1011.2
20260906082019 84 127 11.0 15.0 0.00 0.00 0.00 72 1011.1
20260906081535 84 125 9.0 13.0 0.00 0.00 0.00 72 1011.1
20260906081018 83 125 9.0 13.0 0.00 0.00 0.00 73 1011.1
20260906080520 84 116 9.0 12.0 0.00 0.00 0.00 71 1011.1
20260906080035 84 141 9.0 12.0 0.00 0.00 0.00 71 1011.1
20260906075513 84 127 9.0 12.0 0.00 0.00 0.00 70 1011.3
20260906075017 84 93 8.0 11.0 0.00 0.00 0.00 70 1011.2
20260906074528 84 123 8.0 11.0 0.00 0.00 0.00 70 1011.2
20260906074017 84 141 8.0 11.0 0.00 0.00 0.00 70 1011.3
20260906073517 84 119 6.0 10.0 0.00 0.00 0.00 70 1011.3
20260906073032 84 100 6.0 10.0 0.00 0.00 0.00 70 1011.3
20260906072516 84 117 7.0 10.0 0.00 0.00 0.00 69 1011.4
20260906072018 84 122 6.0 9.0 0.00 0.00 0.00 68 1011.3
20260906071533 84 135 4.0 9.0 0.00 0.00 0.00 69 1011.3
20260906071017 84 160 4.0 8.0 0.00 0.00 0.00 69 1011.2
20260906070520 84 120 4.0 7.0 0.00 0.00 0.00 69 1011.3
20260906070036 84 113 5.0 6.0 0.00 0.00 0.00 67 1011.2
20260906065524 84 76 4.0 7.0 0.00 0.00 0.00 68 1011.1
20260906065019 84 85 4.0 7.0 0.00 0.00 0.00 69 1011.1
20260906064534 84 75 4.0 6.0 0.00 0.00 0.00 68 1011.1
20260906064016 84 96 4.0 6.0 0.00 0.00 0.00 69 1011.1
20260906063516 84 65 3.0 5.0 0.00 0.00 0.00 67 1011.1
20260906063028 84 46 3.0 8.0 0.00 0.00 0.00 68 1011.1
20260906062517 84 57 5.0 8.0 0.00 0.00 0.00 67 1011.0
20260906062016 84 62 3.0 6.0 0.00 0.00 0.00 67 1011.0
20260906061536 85 64 3.0 5.0 0.00 0.00 0.00 65 1011.1
20260906061018 84 49 2.0 8.0 0.00 0.00 0.00 65 1011.1
20260906060519 84 26 3.0 8.0 0.00 0.00 0.00 65 1011.0
20260906060034 84 353 4.0 7.0 0.00 0.00 0.00 66 1011.0
20260906055521 83 46 1.0 6.0 0.00 0.00 0.00 68 1010.9
20260906055021 82 21 3.0 7.0 0.00 0.00 0.00 69 1010.9
20260906054552 82 331 4.0 7.0 0.00 0.00 0.00 69 1010.9
20260906054016 81 316 5.0 9.0 0.00 0.00 0.00 70 1010.8
20260906053516 81 299 6.0 9.0 0.00 0.00 0.00 71 1010.8
20260906053037 81 297 4.0 7.0 0.00 0.00 0.00 72 1010.8
20260906052515 81 304 4.0 7.0 0.00 0.00 0.00 72 1010.8
20260906052017 80 311 4.0 6.0 0.00 0.00 0.00 73 1010.8
20260906051528 80 285 3.0 5.0 0.00 0.00 0.00 73 1010.8
20260906051015 80 304 2.0 5.0 0.00 0.00 0.00 74 1010.8
20260906050515 79 319 3.0 5.0 0.00 0.00 0.00 74 1010.9
20260906050037 79 310 2.0 6.0 0.00 0.00 0.00 74 1010.9
20260906045520 79 299 4.0 6.0 0.00 0.00 0.00 74 1011.0
20260906045019 79 309 3.0 4.0 0.00 0.00 0.00 73 1010.9
20260906044536 79 302 2.0 4.0 0.00 0.00 0.00 73 1011.0
20260906044021 79 330 2.0 4.0 0.00 0.00 0.00 74 1011.0
20260906043515 79 341 2.0 5.0 0.00 0.00 0.00 74 1010.9
20260906043035 79 340 2.0 7.0 0.00 0.00 0.00 74 1010.9
20260906042515 79 326 3.0 7.0 0.00 0.00 0.00 74 1010.9
20260906042018 78 34 4.0 8.0 0.00 0.00 0.00 75 1010.9
20260906041536 78 23 3.0 8.0 0.00 0.00 0.00 75 1010.9
20260906041016 78 340 5.0 8.0 0.00 0.00 0.00 75 1011.0
20260906040517 78 335 5.0 8.0 0.00 0.00 0.00 74 1010.9
20260906040057 78 18 5.0 8.0 0.00 0.00 0.00 75 1010.9
20260906035519 77 345 4.0 9.0 0.00 0.00 0.00 76 1010.8
20260906035020 77 30 5.0 9.0 0.00 0.00 0.00 77 1010.8
20260906034533 77 10 2.0 6.0 0.00 0.00 0.00 79 1010.8
20260906034019 77 39 3.0 6.0 0.00 0.00 0.00 80 1010.8
20260906033510 76 34 2.0 5.0 0.00 0.00 0.00 81 1010.7
20260906033033 76 357 1.0 5.0 0.00 0.00 0.00 81 1010.7
20260906032513 76 77 0.0 5.0 0.00 0.00 0.00 82 1010.6
20260906032013 76 39 3.0 5.0 0.00 0.00 0.00 82 1010.6
20260906031523 75 8 1.0 4.0 0.00 0.00 0.00 82 1010.6
20260906031013 75 320 1.0 3.0 0.00 0.00 0.00 82 1010.5
20260906030515 76 308 2.0 4.0 0.00 0.00 0.00 82 1010.4
20260906030029 76 304 3.0 4.0 0.00 0.00 0.00 82 1010.4
20260906025516 75 306 3.0 3.0 0.00 0.00 0.00 81 1010.4
20260906025018 76 295 2.0 2.0 0.00 0.00 0.00 82 1010.3
20260906024535 76 305 1.0 3.0 0.00 0.00 0.00 81 1010.3
20260906024011 76 306 2.0 4.0 0.00 0.00 0.00 81 1010.3
20260906023508 76 304 3.0 4.0 0.00 0.00 0.00 81 1010.3
20260906023016 76 296 2.0 3.0 0.00 0.00 0.00 81 1010.2
20260906022509 76 306 2.0 3.0 0.00 0.00 0.00 81 1010.2
20260906022012 76 305 0.0 3.0 0.00 0.00 0.00 82 1010.3
20260906021524 76 316 2.0 3.0 0.00 0.00 0.00 82 1010.3
20260906021015 77 311 2.0 3.0 0.00 0.00 0.00 82 1010.3
20260906020513 77 350 0.0 4.0 0.00 0.00 0.00 83 1010.3
20260906020030 77 309 2.0 4.0 0.00 0.00 0.00 83 1010.3
20260906015516 77 299 1.0 3.0 0.00 0.00 0.00 83 1010.3
20260906015014 77 328 2.0 4.0 0.00 0.00 0.00 83 1010.3
20260906014537 77 332 1.0 4.0 0.00 0.00 0.00 82 1010.3
20260906014016 77 321 1.0 3.0 0.00 0.00 0.00 82 1010.3
20260906013516 77 303 1.0 2.0 0.00 0.00 0.00 82 1010.3
20260906013012 77 330 1.0 3.0 0.00 0.00 0.00 81 1010.2
20260906012511 77 317 0.0 3.0 0.00 0.00 0.00 81 1010.2
20260906012010 77 310 2.0 3.0 0.00 0.00 0.00 81 1010.2
20260906011518 77 347 1.0 3.0 0.00 0.00 0.00 81 1010.2
20260906011009 78 325 1.0 3.0 0.00 0.00 0.00 81 1010.2
20260906010512 78 20 0.0 3.0 0.00 0.00 0.00 81 1010.1
20260906010026 78 32 0.0 3.0 0.00 0.00 0.00 81 1010.1
20260906005515 78 354 2.0 3.0 0.00 0.00 0.00 81 1010.2
20260906005013 77 8 1.0 2.0 0.00 0.00 0.00 81 1010.2
20260906004530 77 7 1.0 3.0 0.00 0.00 0.00 81 1010.2
20260906004021 77 341 2.0 3.0 0.00 0.00 0.00 82 1010.3
20260906003514 77 336 1.0 5.0 0.00 0.00 0.00 82 1010.3
20260906003037 77 307 2.0 5.0 0.00 0.00 0.00 82 1010.3
20260906002515 77 288 2.0 4.0 0.00 0.00 0.00 82 1010.3
20260906002016 78 308 3.0 4.0 0.00 0.00 0.00 81 1010.3
20260906001517 78 306 2.0 2.0 0.00 0.00 0.00 81 1010.2
20260906001010 79 305 2.0 2.0 0.00 0.00 0.00 81 1010.2
20260906000509 79 302 0.0 2.0 0.00 0.00 0.00 81 1010.2
20260906000020 79 38 1.0 2.0 0.00 0.00 0.00 82 1010.3
20260905235512 79 56 0.0 3.0 0.00 0.00 0.00 81 1010.2
20260905235013 79 30 1.0 3.0 0.00 0.00 0.00 81 1010.2
20260905234527 79 347 3.0 3.0 0.00 0.00 0.00 81 1010.3
20260905234015 79 4 0.0 0.0 0.00 0.00 0.00 82 1010.3
20260905233516 79 5 0.0 0.0 0.00 0.00 0.00 81 1010.3
20260905233035 79 5 0.0 0.0 0.00 0.00 0.00 81 1010.3
20260905232518 79 5 0.0 2.0 0.00 0.00 0.00 81 1010.3
20260905232016 79 4 0.0 3.0 0.00 0.00 0.00 81 1010.4
20260905231538 79 346 0.0 4.0 0.00 0.00 0.00 82 1010.5
20260905231015 79 308 1.0 4.0 0.00 0.00 0.00 82 1010.6
20260905230521 78 302 2.0 4.0 0.00 0.00 0.00 81 1010.6
20260905230018 79 313 3.0 4.0 0.00 0.00 0.00 81 1010.5
20260905225512 79 310 2.0 4.0 0.00 0.00 0.00 81 1010.5
20260905225014 79 300 3.0 4.0 0.00 0.00 0.00 81 1010.5
20260905224555 79 304 2.0 3.0 0.00 0.00 0.00 81 1010.5
20260905224014 79 303 2.0 2.0 0.00 0.00 0.00 81 1010.4
20260905223515 79 308 1.0 2.0 0.00 0.00 0.00 81 1010.5
20260905223031 79 301 2.0 3.0 0.00 0.00 0.00 81 1010.5
20260905222514 79 304 1.0 4.0 0.00 0.00 0.00 81 1010.6
20260905222015 79 306 2.0 4.0 0.00 0.00 0.00 81 1010.6
20260905221533 79 307 3.0 4.0 0.00 0.00 0.00 81 1010.6
20260905221018 79 332 2.0 4.0 0.00 0.00 0.00 81 1010.6
20260905220517 79 295 2.0 4.0 0.00 0.00 0.00 81 1010.6
20260905220035 80 143 0.0 0.0 0.00 0.00 0.00 81 1010.6
20260905215520 80 142 0.0 0.0 0.00 0.00 0.00 81 1010.6
20260905215023 80 142 0.0 0.0 0.00 0.00 0.00 82 1010.6
20260905214520 81 142 0.0 0.0 0.00 0.00 0.00 81 1010.6
20260905214014 80 142 0.0 0.0 0.00 0.00 0.00 81 1010.6
20260905213513 81 142 0.0 0.0 0.00 0.00 0.00 80 1010.6
20260905213029 81 333 0.0 0.0 0.00 0.00 0.00 80 1010.6
20260905212521 81 333 0.0 2.0 0.00 0.00 0.00 80 1010.7
20260905212014 81 333 0.0 5.0 0.00 0.00 0.00 80 1010.7
20260905211541 81 167 0.0 7.0 0.00 0.00 0.00 80 1010.7
20260905211015 81 150 4.0 8.0 0.00 0.00 0.00 80 1010.6
20260905210516 81 158 6.0 8.0 0.00 0.00 0.00 80 1010.6
20260905210019 81 135 6.0 7.0 0.00 0.00 0.00 79 1010.7
20260905205507 80 150 5.0 6.0 0.00 0.00 0.00 79 1010.8
20260905205009 80 154 1.0 2.0 0.00 0.00 0.00 79 1010.9
20260905204516 80 221 1.0 3.0 0.00 0.00 0.00 79 1011.0
20260905204009 80 221 1.0 3.0 0.00 0.00 0.00 79 1011.0
20260905203510 81 242 2.0 3.0 0.00 0.00 0.00 79 1011.0
20260905203026 81 233 2.0 4.0 0.00 0.00 0.00 79 1011.1
20260905202515 81 228 2.0 4.0 0.00 0.00 0.00 79 1011.1
20260905202014 81 209 2.0 4.0 0.00 0.00 0.00 78 1011.1
20260905201527 81 203 2.0 4.0 0.00 0.00 0.00 78 1011.1
20260905201014 81 229 1.0 3.0 0.00 0.00 0.00 78 1011.1
20260905200521 81 257 2.0 3.0 0.00 0.00 0.00 78 1011.0
20260905200033 81 247 2.0 4.0 0.00 0.00 0.00 78 1011.0
20260905195515 81 250 2.0 5.0 0.00 0.00 0.00 78 1011.0
20260905195015 81 281 4.0 6.0 0.00 0.00 0.00 78 1011.1
20260905194518 81 304 3.0 6.0 0.00 0.00 0.00 78 1011.1
20260905194008 81 300 4.0 6.0 0.00 0.00 0.00 78 1011.1
20260905193508 81 308 3.0 6.0 0.00 0.00 0.00 78 1011.0
20260905193018 81 291 2.0 6.0 0.00 0.00 0.00 78 1011.1
20260905192512 81 302 4.0 6.0 0.00 0.00 0.00 78 1011.0
20260905192011 81 297 4.0 7.0 0.00 0.00 0.00 77 1011.0
20260905191527 82 288 4.0 7.0 0.00 0.00 0.00 77 1011.0
20260905191016 82 295 3.0 7.0 0.00 0.00 0.00 77 1011.0
20260905190515 82 304 2.0 8.0 0.00 0.00 0.00 77 1011.1
20260905190031 82 354 5.0 8.0 0.00 0.00 0.00 77 1011.1
20260905185518 82 327 4.0 5.0 0.00 0.00 0.00 76 1011.2
20260905185014 82 285 0.0 4.0 0.00 0.00 0.00 76 1011.2
20260905184543 82 312 1.0 4.0 0.00 0.00 0.00 76 1011.2
20260905184019 82 318 2.0 4.0 0.00 0.00 0.00 76 1011.2
20260905183508 82 327 2.0 5.0 0.00 0.00 0.00 76 1011.2
20260905183013 82 307 2.0 6.0 0.00 0.00 0.00 76 1011.1
20260905182507 82 315 2.0 8.0 0.00 0.00 0.00 76 1011.1
20260905182012 82 320 4.0 8.0 0.00 0.00 0.00 76 1011.2
20260905181519 82 300 3.0 8.0 0.00 0.00 0.00 76 1011.0
20260905181014 82 41 1.0 8.0 0.00 0.00 0.00 76 1011.2
20260905180520 82 310 5.0 8.0 0.00 0.00 0.00 75 1011.2
20260905180027 82 304 3.0 7.0 0.00 0.00 0.00 75 1011.2
20260905175515 83 300 3.0 8.0 0.00 0.00 0.00 75 1011.2
20260905175016 83 295 2.0 9.0 0.00 0.00 0.00 75 1011.1
20260905174530 83 315 4.0 9.0 0.00 0.00 0.00 75 1011.1
20260905174016 83 316 5.0 8.0 0.00 0.00 0.00 75 1011.1
20260905173516 82 279 5.0 9.0 0.00 0.00 0.00 76 1011.0
20260905173039 83 253 7.0 10.0 0.00 0.00 0.00 75 1010.9
20260905172518 82 268 5.0 10.0 0.00 0.00 0.00 76 1010.9
20260905172014 82 268 8.0 12.0 0.00 0.00 0.00 76 1010.8
20260905171516 82 240 8.0 12.0 0.00 0.00 0.00 77 1010.8
20260905171011 82 246 9.0 12.0 0.00 0.00 0.00 77 1010.8
20260905170515 82 245 8.0 13.0 0.00 0.00 0.00 78 1010.8
20260905170033 82 258 9.0 13.0 0.00 0.00 0.00 78 1010.7
20260905165514 82 248 10.0 13.0 0.00 0.00 0.00 79 1010.7
20260905165015 82 250 11.0 14.0 0.00 0.00 0.00 79 1010.6
20260905164531 82 253 10.0 15.0 0.00 0.00 0.00 80 1010.5
20260905164017 82 235 11.0 15.0 0.00 0.00 0.00 80 1010.5
20260905163514 82 262 8.0 15.0 0.00 0.00 0.00 80 1010.4
20260905163031 82 238 11.0 18.0 0.00 0.00 0.00 80 1010.4
20260905162517 82 245 13.0 18.0 0.00 0.00 0.00 80 1010.3
20260905162019 82 250 10.0 19.0 0.00 0.00 0.00 81 1010.3
20260905161539 82 238 13.0 19.0 0.00 0.00 0.00 81 1010.3
20260905161015 82 248 13.0 18.0 0.00 0.00 0.00 80 1010.3
20260905160509 82 219 15.0 18.0 0.00 0.00 0.00 80 1010.3
20260905160016 82 212 13.0 17.0 0.00 0.00 0.00 80 1010.3
20260905155511 82 219 11.0 17.0 0.00 0.00 0.00 79 1010.3
20260905155012 82 230 12.0 17.0 0.00 0.00 0.00 79 1010.3
20260905154523 83 209 12.0 17.0 0.00 0.00 0.00 78 1010.3
20260905154016 83 217 12.0 16.0 0.00 0.00 0.00 78 1010.3
20260905153514 83 213 10.0 18.0 0.00 0.00 0.00 77 1010.2
20260905153028 83 212 11.0 18.0 0.00 0.00 0.00 77 1010.3
20260905152515 83 219 14.0 16.0 0.00 0.00 0.00 76 1010.4
20260905152018 84 207 10.0 16.0 0.00 0.00 0.00 76 1010.4
20260905151532 84 206 10.0 15.0 0.00 0.00 0.00 75 1010.3
20260905151018 84 199 10.0 17.0 0.00 0.00 0.00 75 1010.3
20260905150519 84 215 12.0 17.0 0.00 0.00 0.00 74 1010.3
20260905150039 84 215 12.0 17.0 0.00 0.00 0.00 75 1010.3
20260905145519 85 209 11.0 16.0 0.00 0.00 0.00 73 1010.3
20260905145011 84 233 12.0 16.0 0.00 0.00 0.00 69 1010.3
20260905144524 85 195 12.0 16.0 0.00 0.00 0.00 71 1010.3
20260905144017 85 214 10.0 16.0 0.00 0.00 0.00 70 1010.3
20260905143514 85 231 11.0 16.0 0.00 0.00 0.00 69 1010.4
20260905143024 85 243 13.0 16.0 0.00 0.00 0.00 70 1010.4
20260905142515 85 215 10.0 17.0 0.00 0.00 0.00 71 1010.4
20260905142016 85 212 13.0 18.0 0.00 0.00 0.00 70 1010.5
20260905141531 85 236 14.0 18.0 0.00 0.00 0.00 70 1010.4
20260905141017 85 210 11.0 15.0 0.00 0.00 0.00 69 1010.4
20260905140521 85 169 11.0 16.0 0.00 0.00 0.00 70 1010.4
20260905140036 85 173 11.0 16.0 0.00 0.00 0.00 65 1010.3
20260905135519 85 207 11.0 15.0 0.00 0.00 0.00 64 1010.4
20260905135019 85 150 12.0 16.0 0.00 0.00 0.00 63 1010.4
20260905134535 85 207 11.0 16.0 0.00 0.00 0.00 64 1010.4
20260905134015 85 207 10.0 17.0 0.00 0.00 0.00 65 1010.4
20260905133513 85 206 11.0 17.0 0.00 0.00 0.00 64 1010.5
20260905133033 85 194 10.0 18.0 0.00 0.00 0.00 69 1010.5
20260905132512 85 224 14.0 18.0 0.00 0.00 0.00 69 1010.6
20260905132014 85 191 12.0 18.0 0.00 0.00 0.00 69 1010.6
20260905131529 85 209 12.0 18.0 0.00 0.00 0.00 70 1010.5
20260905131016 85 173 10.0 16.0 0.00 0.00 0.00 71 1010.6
20260905130516 85 223 12.0 16.0 0.00 0.00 0.00 71 1010.6
20260905130029 85 211 11.0 18.0 0.00 0.00 0.00 70 1010.7
20260905125521 85 159 13.0 18.0 0.00 0.00 0.00 71 1010.6
20260905125016 86 184 10.0 16.0 0.00 0.00 0.00 70 1010.6
20260905124534 85 205 10.0 16.0 0.00 0.00 0.00 72 1010.6
20260905124020 85 210 12.0 17.0 0.00 0.00 0.00 71 1010.7
20260905123520 85 172 9.0 17.0 0.00 0.00 0.00 72 1010.6
20260905123035 85 160 10.0 17.0 0.00 0.00 0.00 71 1010.7
20260905122510 85 196 11.0 17.0 0.00 0.00 0.00 72 1010.8
20260905122012 85 205 9.0 15.0 0.00 0.00 0.00 70 1010.9
20260905121525 85 183 11.0 17.0 0.00 0.00 0.00 72 1010.8
20260905121014 85 207 12.0 17.0 0.00 0.00 0.00 70 1011.0